QTR4W OTHH-OOMS

Flight info

Callsign QTR4W
Flight time 1h 0m
Altitude 33000
Route BUNDU B415 RURAL N685 LAKLU G216 MCT
Aircraft B77W/H-SDE1E2E3FGHIJ2J3J4J5M1RWXY/LB1D1

Departure

Time 2026-05-06 14:53
Airport Hamad International Airport (OTHH)

Arrival

Time 2026-05-06 15:53
Airport Muscat International Airport (OOMS)
Time Latitude Longitude Altitude Speed Heading
2026-05-06 14:14 25.26336 51.61663 27 ft 0 kts 157°
2026-05-06 14:39 25.26347 51.61658 27 ft 4 kts 158°
2026-05-06 14:40 25.26372 51.61647 26 ft 3 kts 158°
2026-05-06 14:40 25.26393 51.61637 25 ft 4 kts 146°
2026-05-06 14:40 25.26410 51.61620 26 ft 4 kts 117°
2026-05-06 14:40 25.26415 51.61598 25 ft 4 kts 83°
2026-05-06 14:41 25.26409 51.61570 25 ft 4 kts 68°
2026-05-06 14:41 25.26401 51.61550 26 ft 1 kts 68°
2026-05-06 14:41 25.26401 51.61549 26 ft 0 kts 68°
2026-05-06 14:43 25.26410 51.61573 25 ft 11 kts 68°
2026-05-06 14:44 25.26442 51.61661 26 ft 12 kts 68°
2026-05-06 14:44 25.26474 51.61750 27 ft 12 kts 68°
2026-05-06 14:44 25.26506 51.61839 27 ft 12 kts 68°
2026-05-06 14:45 25.26564 51.62006 27 ft 7 kts 83°
2026-05-06 14:45 25.26531 51.62052 27 ft 13 kts 149°
2026-05-06 14:45 25.26402 51.62115 27 ft 22 kts 158°
2026-05-06 14:45 25.26262 51.62176 28 ft 22 kts 158°
2026-05-06 14:46 25.26121 51.62238 28 ft 22 kts 158°
2026-05-06 14:46 25.26039 51.62274 28 ft 12 kts 158°
2026-05-06 14:46 25.25997 51.62315 28 ft 8 kts 103°
2026-05-06 14:46 25.26004 51.62353 28 ft 8 kts 72°
2026-05-06 14:47 25.26023 51.62413 28 ft 8 kts 70°
2026-05-06 14:47 25.26060 51.62462 27 ft 9 kts 13°
2026-05-06 14:47 25.26212 51.62401 28 ft 50 kts 338°
2026-05-06 14:47 25.26792 51.62146 27 ft 111 kts 339°
2026-05-06 14:48 25.27206 51.61963 27 ft 38 kts 338°
2026-05-06 14:48 25.27415 51.61804 28 ft 35 kts 310°
2026-05-06 14:48 25.27455 51.61698 28 ft 12 kts 254°
2026-05-06 14:48 25.27385 51.61682 27 ft 12 kts 162°
2026-05-06 14:49 25.27322 51.61707 27 ft 0 kts 159°
2026-05-06 14:49 25.27319 51.61709 27 ft 4 kts 159°
2026-05-06 14:49 25.27204 51.61759 27 ft 26 kts 158°
2026-05-06 14:49 25.27031 51.61835 27 ft 27 kts 158°
2026-05-06 14:50 25.26852 51.61914 26 ft 28 kts 158°
2026-05-06 14:50 25.26671 51.61994 27 ft 28 kts 158°
2026-05-06 14:50 25.26491 51.62075 27 ft 28 kts 158°
2026-05-06 14:50 25.26310 51.62154 27 ft 28 kts 159°
2026-05-06 14:51 25.26130 51.62233 28 ft 28 kts 158°
2026-05-06 14:51 25.26011 51.62289 28 ft 12 kts 143°
2026-05-06 14:51 25.26012 51.62376 28 ft 12 kts 73°
2026-05-06 14:51 25.26049 51.62453 27 ft 10 kts 36°
2026-05-06 14:52 25.26177 51.62415 28 ft 37 kts 338°
2026-05-06 14:52 25.26678 51.62195 30 ft 118 kts 338°
2026-05-06 14:52 25.27657 51.61766 40 ft 177 kts 339°
2026-05-06 14:52 25.28791 51.61233 445 ft 178 kts 339°
2026-05-06 14:53 25.29945 51.60710 1186 ft 182 kts 339°
2026-05-06 14:53 25.31140 51.60189 1871 ft 191 kts 340°
2026-05-06 14:53 25.32461 51.59608 2220 ft 214 kts 340°
2026-05-06 14:53 25.33942 51.59317 2727 ft 221 kts 11°
2026-05-06 14:54 25.35312 51.60019 3414 ft 219 kts 44°
2026-05-06 14:54 25.36065 51.61427 3908 ft 221 kts 75°
2026-05-06 14:54 25.36307 51.63149 3978 ft 232 kts 83°
2026-05-06 14:54 25.36445 51.64912 4002 ft 228 kts 83°
2026-05-06 14:55 25.36581 51.66652 4001 ft 226 kts 83°
2026-05-06 14:55 25.36722 51.68373 3998 ft 225 kts 83°
2026-05-06 14:55 25.36848 51.70102 3997 ft 225 kts 90°
2026-05-06 14:55 25.36619 51.71920 4042 ft 256 kts 100°
2026-05-06 14:56 25.36201 51.73919 4025 ft 270 kts 102°
2026-05-06 14:56 25.35760 51.75946 4022 ft 272 kts 102°
2026-05-06 14:56 25.35329 51.77987 4140 ft 273 kts 101°
2026-05-06 14:56 25.34916 51.80009 4893 ft 275 kts 101°
2026-05-06 14:57 25.34494 51.82110 5788 ft 276 kts 101°
2026-05-06 14:57 25.34078 51.84194 6613 ft 280 kts 101°
2026-05-06 14:57 25.33661 51.86287 7381 ft 284 kts 101°
2026-05-06 14:57 25.33233 51.88440 8180 ft 288 kts 101°
2026-05-06 14:58 25.32798 51.90622 8992 ft 292 kts 101°
2026-05-06 14:58 25.32357 51.92834 9798 ft 296 kts 101°
2026-05-06 14:58 25.31909 51.95080 10483 ft 305 kts 101°
2026-05-06 14:58 25.31435 51.97464 10751 ft 331 kts 101°
2026-05-06 14:59 25.30921 52.00044 11064 ft 355 kts 101°
2026-05-06 14:59 25.30371 52.02797 11474 ft 375 kts 101°
2026-05-06 14:59 25.29799 52.05647 12241 ft 383 kts 101°
2026-05-06 14:59 25.29188 52.08537 13101 ft 386 kts 105°
2026-05-06 15:00 25.27987 52.11230 13806 ft 396 kts 126°
2026-05-06 15:00 25.26231 52.13604 14518 ft 402 kts 129°
2026-05-06 15:00 25.24451 52.15992 15383 ft 404 kts 128°
2026-05-06 15:00 25.22674 52.18411 16338 ft 406 kts 128°
2026-05-06 15:01 25.20924 52.20824 17266 ft 408 kts 128°
2026-05-06 15:01 25.19150 52.23288 18180 ft 411 kts 129°
2026-05-06 15:01 25.17365 52.25776 18859 ft 417 kts 129°
2026-05-06 15:01 25.15545 52.28315 19475 ft 425 kts 129°
2026-05-06 15:02 25.13692 52.30896 20134 ft 431 kts 129°
2026-05-06 15:02 25.11817 52.33506 20831 ft 437 kts 129°
2026-05-06 15:02 25.09918 52.36153 21508 ft 442 kts 129°
2026-05-06 15:02 25.07996 52.38832 22158 ft 448 kts 129°
2026-05-06 15:03 25.06048 52.41549 22801 ft 454 kts 129°
2026-05-06 15:03 25.04076 52.44297 23420 ft 460 kts 129°
2026-05-06 15:03 25.02104 52.47042 23921 ft 464 kts 129°
2026-05-06 15:03 25.00277 52.50006 24420 ft 471 kts 117°
2026-05-06 15:04 24.99147 52.53408 24922 ft 475 kts 107°
2026-05-06 15:04 24.98227 52.56928 25420 ft 480 kts 107°
2026-05-06 15:04 24.97279 52.60475 25904 ft 485 kts 108°
2026-05-06 15:04 24.96257 52.64037 26388 ft 490 kts 109°
2026-05-06 15:05 24.95190 52.67616 26882 ft 494 kts 110°
2026-05-06 15:05 24.94192 52.71256 27351 ft 499 kts 108°
2026-05-06 15:05 24.93270 52.74956 27848 ft 503 kts 107°
2026-05-06 15:05 24.92377 52.78703 28312 ft 507 kts 107°
2026-05-06 15:06 24.91486 52.82478 28753 ft 512 kts 107°
2026-05-06 15:06 24.90578 52.86299 29188 ft 516 kts 107°
2026-05-06 15:06 24.89658 52.90127 29631 ft 520 kts 107°
2026-05-06 15:06 24.88719 52.93993 30103 ft 521 kts 107°
2026-05-06 15:07 24.87790 52.97798 30605 ft 520 kts 107°
2026-05-06 15:07 24.86848 53.01642 31140 ft 520 kts 107°
2026-05-06 15:07 24.85905 53.05482 31650 ft 520 kts 107°
2026-05-06 15:07 24.84958 53.09333 32143 ft 520 kts 107°
2026-05-06 15:08 24.84013 53.13176 32621 ft 520 kts 107°
2026-05-06 15:08 24.83064 53.17030 32812 ft 524 kts 107°
2026-05-06 15:08 24.82111 53.20901 32782 ft 522 kts 107°
2026-05-06 15:09 24.80215 53.28590 32782 ft 519 kts 107°
2026-05-06 15:09 24.78325 53.36225 32783 ft 520 kts 107°
2026-05-06 15:10 24.76415 53.43914 32778 ft 520 kts 107°
2026-05-06 15:10 24.74500 53.51606 32776 ft 520 kts 107°
2026-05-06 15:11 24.72597 53.59239 32773 ft 521 kts 107°
2026-05-06 15:11 24.70679 53.66916 32782 ft 521 kts 107°
2026-05-06 15:12 24.68754 53.74602 32765 ft 520 kts 107°
2026-05-06 15:12 24.66825 53.82283 32770 ft 520 kts 107°
2026-05-06 15:13 24.64896 53.89950 32783 ft 520 kts 107°
2026-05-06 15:13 24.62999 53.97618 32777 ft 520 kts 105°
2026-05-06 15:14 24.61297 54.05336 32764 ft 520 kts 104°
2026-05-06 15:14 24.59631 54.13019 32767 ft 520 kts 105°
2026-05-06 15:15 24.57917 54.20737 32772 ft 520 kts 105°
2026-05-06 15:15 24.56188 54.28444 32773 ft 520 kts 105°
2026-05-06 15:16 24.54456 54.36159 32772 ft 519 kts 105°
2026-05-06 15:16 24.52932 54.43919 32777 ft 520 kts 102°
2026-05-06 15:17 24.51268 54.51621 32770 ft 518 kts 111°
2026-05-06 15:17 24.48896 54.57645 32747 ft 515 kts 120°
2026-05-06 15:18 24.44549 54.65402 32753 ft 513 kts 124°
2026-05-06 15:18 24.40768 54.72049 32747 ft 513 kts 125°
2026-05-06 15:19 24.37568 54.77541 32749 ft 513 kts 125°
2026-05-06 15:19 24.33712 54.84145 32757 ft 513 kts 125°
2026-05-06 15:20 24.29872 54.90746 32766 ft 513 kts 125°
2026-05-06 15:20 24.26034 54.97345 32776 ft 513 kts 125°
2026-05-06 15:21 24.22192 55.03940 32779 ft 513 kts 125°
2026-05-06 15:21 24.18340 55.10535 32783 ft 513 kts 125°
2026-05-06 15:22 24.14493 55.17109 32784 ft 513 kts 125°
2026-05-06 15:22 24.10646 55.23681 32784 ft 512 kts 125°
2026-05-06 15:23 24.06829 55.30203 32789 ft 512 kts 124°
2026-05-06 15:23 24.03600 55.37178 32791 ft 515 kts 112°
2026-05-06 15:24 24.01062 55.44504 32803 ft 515 kts 112°
2026-05-06 15:24 23.98483 55.51813 32803 ft 515 kts 113°
2026-05-06 15:25 23.95754 55.59047 32803 ft 514 kts 117°
2026-05-06 15:25 23.92516 55.66011 32814 ft 513 kts 119°
2026-05-06 15:26 23.89223 55.72940 32815 ft 513 kts 119°
2026-05-06 15:26 23.85954 55.79879 32821 ft 513 kts 119°
2026-05-06 15:27 23.82721 55.86786 32827 ft 513 kts 118°
2026-05-06 15:27 23.79467 55.93738 32835 ft 513 kts 119°
2026-05-06 15:28 23.76217 56.00666 32839 ft 513 kts 119°
2026-05-06 15:28 23.72949 56.07618 32846 ft 513 kts 119°
2026-05-06 15:29 23.69710 56.14499 32657 ft 512 kts 119°
2026-05-06 15:29 23.68079 56.17959 32136 ft 513 kts 119°
2026-05-06 15:29 23.66457 56.21400 31611 ft 508 kts 118°
2026-05-06 15:29 23.64846 56.24815 31094 ft 503 kts 118°
2026-05-06 15:30 23.63235 56.28226 30575 ft 514 kts 118°
2026-05-06 15:30 23.61554 56.31778 30032 ft 539 kts 118°
2026-05-06 15:30 23.59803 56.35476 29407 ft 554 kts 118°
2026-05-06 15:30 23.58056 56.39176 28797 ft 543 kts 118°
2026-05-06 15:31 23.56344 56.42797 28277 ft 526 kts 118°
2026-05-06 15:31 23.54706 56.46258 27299 ft 504 kts 118°
2026-05-06 15:31 23.53128 56.49585 26198 ft 484 kts 118°
2026-05-06 15:32 23.50117 56.55921 25028 ft 452 kts 118°
2026-05-06 15:32 23.48709 56.58884 24442 ft 427 kts 118°
2026-05-06 15:32 23.47359 56.61722 23706 ft 430 kts 117°
2026-05-06 15:32 23.45985 56.64608 23242 ft 427 kts 117°
2026-05-06 15:33 23.44627 56.67460 22818 ft 421 kts 117°
2026-05-06 15:33 23.43287 56.70274 22452 ft 417 kts 117°
2026-05-06 15:33 23.41956 56.73067 22185 ft 409 kts 117°
2026-05-06 15:33 23.40672 56.75761 21559 ft 396 kts 117°
2026-05-06 15:34 23.39392 56.78444 21063 ft 401 kts 117°
2026-05-06 15:34 23.38125 56.81101 20853 ft 385 kts 117°
2026-05-06 15:34 23.36895 56.83675 20408 ft 385 kts 117°
2026-05-06 15:34 23.35691 56.86276 20010 ft 384 kts 112°
2026-05-06 15:35 23.34980 56.89074 19593 ft 385 kts 97°
2026-05-06 15:35 23.34903 56.91979 19298 ft 382 kts 84°
2026-05-06 15:35 23.35359 56.94813 19035 ft 379 kts 77°
2026-05-06 15:35 23.35912 56.97604 18769 ft 377 kts 77°
2026-05-06 15:36 23.36453 57.00383 18445 ft 374 kts 78°
2026-05-06 15:36 23.36966 57.03155 18022 ft 372 kts 78°
2026-05-06 15:36 23.37462 57.05911 17563 ft 369 kts 78°
2026-05-06 15:36 23.37970 57.08604 17123 ft 366 kts 77°
2026-05-06 15:37 23.38557 57.11327 16690 ft 363 kts 76°
2026-05-06 15:37 23.39152 57.13961 16268 ft 361 kts 75°
2026-05-06 15:37 23.39754 57.16608 15833 ft 359 kts 75°
2026-05-06 15:37 23.40350 57.19241 15415 ft 357 kts 75°
2026-05-06 15:38 23.40935 57.21853 15001 ft 355 kts 75°
2026-05-06 15:38 23.41515 57.24463 14582 ft 353 kts 75°
2026-05-06 15:38 23.42089 57.27054 14156 ft 352 kts 75°
2026-05-06 15:38 23.42660 57.29640 13750 ft 350 kts 75°
2026-05-06 15:39 23.43222 57.32197 13411 ft 345 kts 75°
2026-05-06 15:39 23.43770 57.34695 13009 ft 343 kts 75°
2026-05-06 15:39 23.44322 57.37210 12724 ft 337 kts 75°
2026-05-06 15:39 23.44849 57.39615 12576 ft 313 kts 75°
2026-05-06 15:40 23.45337 57.41851 12228 ft 294 kts 75°
2026-05-06 15:40 23.45802 57.43978 11783 ft 280 kts 75°
2026-05-06 15:40 23.46243 57.45995 11349 ft 269 kts 75°
2026-05-06 15:40 23.46670 57.47950 10789 ft 263 kts 76°
2026-05-06 15:41 23.47094 57.49884 10197 ft 261 kts 76°
2026-05-06 15:41 23.47515 57.51808 9559 ft 261 kts 76°
2026-05-06 15:41 23.47934 57.53728 8931 ft 259 kts 76°
2026-05-06 15:41 23.48348 57.55624 8325 ft 256 kts 76°
2026-05-06 15:42 23.48750 57.57468 7890 ft 249 kts 76°
2026-05-06 15:42 23.49151 57.59311 7510 ft 250 kts 77°
2026-05-06 15:42 23.49553 57.61159 7244 ft 256 kts 77°
2026-05-06 15:42 23.49965 57.63053 7028 ft 256 kts 77°
2026-05-06 15:43 23.50370 57.64917 6916 ft 251 kts 77°
2026-05-06 15:43 23.50768 57.66749 6769 ft 246 kts 77°
2026-05-06 15:43 23.51159 57.68551 6658 ft 245 kts 77°
2026-05-06 15:43 23.51554 57.70368 6551 ft 249 kts 77°
2026-05-06 15:44 23.51954 57.72214 6442 ft 252 kts 77°
2026-05-06 15:44 23.52356 57.74070 6339 ft 251 kts 77°
2026-05-06 15:44 23.52756 57.75916 6219 ft 250 kts 77°
2026-05-06 15:44 23.53154 57.77755 6098 ft 249 kts 77°
2026-05-06 15:45 23.53548 57.79578 6058 ft 244 kts 77°
2026-05-06 15:45 23.53941 57.81395 6030 ft 251 kts 77°
2026-05-06 15:45 23.54346 57.83275 6039 ft 258 kts 77°
2026-05-06 15:45 23.54759 57.85187 6017 ft 261 kts 77°
2026-05-06 15:46 23.55174 57.87110 5955 ft 260 kts 77°
2026-05-06 15:46 23.55588 57.89032 5651 ft 261 kts 77°
2026-05-06 15:46 23.56003 57.90959 5349 ft 259 kts 77°
2026-05-06 15:46 23.56404 57.92815 5023 ft 244 kts 77°
2026-05-06 15:47 23.56780 57.94562 4746 ft 230 kts 77°
2026-05-06 15:47 23.57147 57.96269 4528 ft 236 kts 77°
2026-05-06 15:47 23.57523 57.98021 4254 ft 243 kts 77°
2026-05-06 15:47 23.57903 57.99788 3991 ft 231 kts 77°
2026-05-06 15:48 23.58250 58.01402 3868 ft 207 kts 77°
2026-05-06 15:48 23.58567 58.02877 3752 ft 195 kts 78°
2026-05-06 15:48 23.58813 58.04322 3599 ft 194 kts 82°
2026-05-06 15:48 23.58969 58.05750 3369 ft 188 kts 84°
2026-05-06 15:49 23.59094 58.07167 3149 ft 188 kts 85°
2026-05-06 15:49 23.59210 58.08586 2922 ft 187 kts 85°
2026-05-06 15:49 23.59323 58.09999 2685 ft 188 kts 85°
2026-05-06 15:49 23.59438 58.11423 2440 ft 188 kts 85°
2026-05-06 15:50 23.59549 58.12819 2200 ft 182 kts 85°
2026-05-06 15:50 23.59655 58.14136 1991 ft 169 kts 85°
2026-05-06 15:50 23.59756 58.15384 1767 ft 161 kts 86°
2026-05-06 15:50 23.59848 58.16554 1583 ft 152 kts 85°
2026-05-06 15:51 23.59941 58.17703 1412 ft 150 kts 86°
2026-05-06 15:51 23.60031 58.18834 1267 ft 149 kts 86°
2026-05-06 15:51 23.60122 58.19962 1055 ft 149 kts 85°
2026-05-06 15:51 23.60212 58.21088 889 ft 150 kts 85°
2026-05-06 15:52 23.60303 58.22226 709 ft 151 kts 84°
2026-05-06 15:52 23.60395 58.23348 527 ft 150 kts 85°
2026-05-06 15:52 23.60491 58.24476 331 ft 149 kts 85°
2026-05-06 15:52 23.60575 58.25594 136 ft 147 kts 85°
2026-05-06 15:53 23.60664 58.26681 41 ft 131 kts 85°
2026-05-06 15:53 23.60730 58.27505 39 ft 87 kts 85°
2026-05-06 15:53 23.60770 58.28001 38 ft 40 kts 85°
2026-05-06 15:53 23.60772 58.28294 40 ft 35 kts 103°
2026-05-06 15:54 23.60712 58.28467 40 ft 12 kts 113°
2026-05-06 15:54 23.60647 58.28507 39 ft 12 kts 199°
2026-05-06 15:54 23.60592 58.28442 39 ft 12 kts 214°
2026-05-06 15:54 23.60520 58.28435 39 ft 10 kts 178°
2026-05-06 15:55 23.60454 58.28440 39 ft 10 kts 175°
2026-05-06 15:55 23.60387 58.28446 39 ft 10 kts 175°
2026-05-06 15:55 23.60351 58.28452 39 ft 4 kts 162°
2026-05-06 15:55 23.60337 58.28487 39 ft 9 kts 99°
2026-05-06 15:56 23.60338 58.28538 39 ft 0 kts 86°
2026-05-06 15:56 23.60339 58.28545 39 ft 2 kts 86°
2026-05-06 15:56 23.60340 58.28562 39 ft 3 kts 85°
2026-05-06 15:56 23.60341 58.28573 39 ft 0 kts 85°